AFRISTAR

Last updated on Sat Jan 05 2019 02:57:31 GMT+0000 (Coordinated Universal Time)

1 25515U 98063A 19003.93948792 -.00000275 00000-0 00000+0 0 9992 2 25515 4.4324 66.7525 0006665 240.4852 269.3496 0.99009023 73793
UTC large
Height (km)
Speed (km/s)
/
Latitude / Longitude
Inclination (degrees)
Orbital Period (minutes)
Azimuth
Elevation
Range (km)
Doppler Factor

Next 0 passes for location: London (51.5072 / 0.1276)

Sorry there are no passes over London.
AFRISTAR